N726AK KPVD-KORE

Flight info

Callsign N726AK
Flight time 0h 38m
Altitude VFR/045
Route
Aircraft C172/L-DOV/C

Departure

Time 2026-04-27 22:32
Airport Rhode Island T. F. Green International Airport (KPVD)

Arrival

Time 2026-04-27 23:10
Airport Orange Municipal Airport (KORE)
Time Latitude Longitude Altitude Speed Heading
2026-04-27 22:32 41.74301 -71.42931 1149 ft 87 kts 345°
2026-04-27 22:32 41.74874 -71.43259 1280 ft 94 kts 344°
2026-04-27 22:32 41.75495 -71.43613 1408 ft 97 kts 344°
2026-04-27 22:32 41.76127 -71.43973 1530 ft 99 kts 345°
2026-04-27 22:33 41.76764 -71.44340 1652 ft 100 kts 345°
2026-04-27 22:33 41.77401 -71.44717 1771 ft 101 kts 345°
2026-04-27 22:33 41.78045 -71.45098 1893 ft 101 kts 344°
2026-04-27 22:33 41.78690 -71.45474 2012 ft 100 kts 345°
2026-04-27 22:34 41.79327 -71.45853 2130 ft 100 kts 344°
2026-04-27 22:34 41.79963 -71.46229 2246 ft 99 kts 346°
2026-04-27 22:34 41.80599 -71.46571 2366 ft 98 kts 347°
2026-04-27 22:34 41.81236 -71.46906 2490 ft 98 kts 346°
2026-04-27 22:35 41.81871 -71.47233 2612 ft 97 kts 347°
2026-04-27 22:35 41.82502 -71.47559 2733 ft 97 kts 347°
2026-04-27 22:35 41.83136 -71.47885 2851 ft 97 kts 347°
2026-04-27 22:35 41.83757 -71.48210 2973 ft 96 kts 347°
2026-04-27 22:36 41.84381 -71.48544 3093 ft 96 kts 347°
2026-04-27 22:36 41.84997 -71.48879 3209 ft 95 kts 346°
2026-04-27 22:36 41.85606 -71.49216 3328 ft 95 kts 346°
2026-04-27 22:36 41.86218 -71.49555 3446 ft 95 kts 346°
2026-04-27 22:37 41.86837 -71.49894 3567 ft 95 kts 346°
2026-04-27 22:37 41.87446 -71.50224 3685 ft 94 kts 346°
2026-04-27 22:37 41.88055 -71.50546 3805 ft 94 kts 346°
2026-04-27 22:37 41.88663 -71.50867 3923 ft 93 kts 346°
2026-04-27 22:38 41.89262 -71.51180 4041 ft 93 kts 347°
2026-04-27 22:38 41.89844 -71.51604 4160 ft 97 kts 332°
2026-04-27 22:38 41.90371 -71.52167 4278 ft 97 kts 330°
2026-04-27 22:38 41.90888 -71.52740 4395 ft 97 kts 329°
2026-04-27 22:39 41.91413 -71.53329 4494 ft 99 kts 329°
2026-04-27 22:39 41.91965 -71.53944 4492 ft 107 kts 329°
2026-04-27 22:39 41.92549 -71.54598 4487 ft 111 kts 329°
2026-04-27 22:39 41.93149 -71.55277 4486 ft 112 kts 329°
2026-04-27 22:40 41.93740 -71.55948 4484 ft 112 kts 329°
2026-04-27 22:40 41.94333 -71.56621 4485 ft 111 kts 329°
2026-04-27 22:40 41.94927 -71.57297 4485 ft 111 kts 329°
2026-04-27 22:40 41.95523 -71.57975 4486 ft 111 kts 329°
2026-04-27 22:41 41.96112 -71.58646 4486 ft 111 kts 328°
2026-04-27 22:41 41.96704 -71.59320 4486 ft 111 kts 329°
2026-04-27 22:41 41.97302 -71.59998 4486 ft 111 kts 329°
2026-04-27 22:41 41.97889 -71.60661 4487 ft 111 kts 328°
2026-04-27 22:42 41.98486 -71.61335 4487 ft 112 kts 328°
2026-04-27 22:42 41.99082 -71.62015 4487 ft 112 kts 328°
2026-04-27 22:42 41.99680 -71.62695 4486 ft 112 kts 328°
2026-04-27 22:42 42.00274 -71.63371 4485 ft 113 kts 328°
2026-04-27 22:43 42.00877 -71.64060 4486 ft 112 kts 328°
2026-04-27 22:43 42.01474 -71.64741 4484 ft 112 kts 328°
2026-04-27 22:43 42.02066 -71.65417 4486 ft 112 kts 328°
2026-04-27 22:43 42.02665 -71.66099 4487 ft 112 kts 328°
2026-04-27 22:44 42.03258 -71.66778 4487 ft 112 kts 328°
2026-04-27 22:44 42.03855 -71.67460 4487 ft 112 kts 328°
2026-04-27 22:44 42.04446 -71.68134 4489 ft 112 kts 328°
2026-04-27 22:44 42.05041 -71.68813 4490 ft 112 kts 328°
2026-04-27 22:45 42.05638 -71.69495 4488 ft 112 kts 328°
2026-04-27 22:45 42.06238 -71.70180 4486 ft 113 kts 328°
2026-04-27 22:45 42.06844 -71.70873 4477 ft 113 kts 327°
2026-04-27 22:45 42.07436 -71.71549 4478 ft 112 kts 328°
2026-04-27 22:46 42.08031 -71.72228 4475 ft 112 kts 327°
2026-04-27 22:46 42.08633 -71.72916 4475 ft 112 kts 328°
2026-04-27 22:46 42.09227 -71.73595 4476 ft 112 kts 327°
2026-04-27 22:46 42.09817 -71.74272 4481 ft 113 kts 327°
2026-04-27 22:47 42.10422 -71.74966 4482 ft 113 kts 327°
2026-04-27 22:47 42.11020 -71.75648 4480 ft 113 kts 327°
2026-04-27 22:47 42.11617 -71.76331 4480 ft 113 kts 327°
2026-04-27 22:47 42.12221 -71.77014 4475 ft 112 kts 329°
2026-04-27 22:48 42.12843 -71.77635 4474 ft 111 kts 331°
2026-04-27 22:48 42.13468 -71.78250 4475 ft 110 kts 331°
2026-04-27 22:48 42.14090 -71.78857 4478 ft 110 kts 332°
2026-04-27 22:48 42.14726 -71.79444 4481 ft 110 kts 333°
2026-04-27 22:49 42.15362 -71.79999 4485 ft 110 kts 335°
2026-04-27 22:49 42.16019 -71.80537 4487 ft 110 kts 338°
2026-04-27 22:49 42.16703 -71.80997 4487 ft 109 kts 344°
2026-04-27 22:49 42.17403 -71.81397 4486 ft 109 kts 344°
2026-04-27 22:50 42.18105 -71.81803 4485 ft 110 kts 343°
2026-04-27 22:50 42.18808 -71.82217 4484 ft 110 kts 342°
2026-04-27 22:50 42.19508 -71.82637 4485 ft 110 kts 342°
2026-04-27 22:50 42.20207 -71.83063 4485 ft 110 kts 342°
2026-04-27 22:51 42.20908 -71.83495 4484 ft 110 kts 342°
2026-04-27 22:51 42.21601 -71.83926 4485 ft 110 kts 342°
2026-04-27 22:51 42.22296 -71.84363 4485 ft 109 kts 342°
2026-04-27 22:51 42.22980 -71.84795 4486 ft 109 kts 341°
2026-04-27 22:52 42.23672 -71.85236 4488 ft 109 kts 342°
2026-04-27 22:52 42.24365 -71.85680 4490 ft 110 kts 342°
2026-04-27 22:52 42.25056 -71.86124 4492 ft 110 kts 341°
2026-04-27 22:52 42.25747 -71.86568 4494 ft 110 kts 341°
2026-04-27 22:53 42.26437 -71.87015 4495 ft 111 kts 341°
2026-04-27 22:53 42.27139 -71.87470 4496 ft 111 kts 341°
2026-04-27 22:53 42.27835 -71.87923 4495 ft 110 kts 342°
2026-04-27 22:53 42.28517 -71.88398 4494 ft 112 kts 336°
2026-04-27 22:54 42.29179 -71.88948 4495 ft 112 kts 335°
2026-04-27 22:54 42.29847 -71.89513 4495 ft 112 kts 335°
2026-04-27 22:54 42.30501 -71.90074 4495 ft 111 kts 335°
2026-04-27 22:54 42.31158 -71.90630 4495 ft 111 kts 335°
2026-04-27 22:55 42.31813 -71.91188 4495 ft 111 kts 334°
2026-04-27 22:55 42.32469 -71.91750 4495 ft 111 kts 334°
2026-04-27 22:55 42.33119 -71.92303 4495 ft 111 kts 334°
2026-04-27 22:55 42.33781 -71.92861 4495 ft 112 kts 335°
2026-04-27 22:56 42.34447 -71.93408 4494 ft 112 kts 336°
2026-04-27 22:56 42.35115 -71.93951 4494 ft 112 kts 335°
2026-04-27 22:56 42.35788 -71.94495 4495 ft 113 kts 335°
2026-04-27 22:56 42.36466 -71.95040 4491 ft 113 kts 335°
2026-04-27 22:57 42.37144 -71.95588 4491 ft 113 kts 335°
2026-04-27 22:57 42.37827 -71.96138 4485 ft 113 kts 335°
2026-04-27 22:57 42.38503 -71.96681 4483 ft 113 kts 336°
2026-04-27 22:57 42.39172 -71.97222 4484 ft 112 kts 335°
2026-04-27 22:58 42.39849 -71.97771 4483 ft 112 kts 335°
2026-04-27 22:58 42.40518 -71.98305 4487 ft 112 kts 335°
2026-04-27 22:58 42.41197 -71.98844 4487 ft 113 kts 335°
2026-04-27 22:58 42.41882 -71.99388 4483 ft 114 kts 335°
2026-04-27 22:59 42.42562 -71.99928 4478 ft 114 kts 336°
2026-04-27 22:59 42.43240 -72.00471 4478 ft 114 kts 336°
2026-04-27 22:59 42.43927 -72.01023 4476 ft 114 kts 335°
2026-04-27 22:59 42.44613 -72.01575 4472 ft 114 kts 335°
2026-04-27 23:00 42.45902 -72.02824 4473 ft 115 kts 328°
2026-04-27 23:00 42.46518 -72.03504 4466 ft 115 kts 328°
2026-04-27 23:00 42.47139 -72.04195 4472 ft 114 kts 327°
2026-04-27 23:01 42.47751 -72.04869 4477 ft 114 kts 327°
2026-04-27 23:01 42.48372 -72.05556 4479 ft 115 kts 327°
2026-04-27 23:01 42.48998 -72.06246 4481 ft 116 kts 327°
2026-04-27 23:01 42.49621 -72.06918 4472 ft 116 kts 328°
2026-04-27 23:02 42.50245 -72.07596 4467 ft 108 kts 328°
2026-04-27 23:02 42.50788 -72.08207 4466 ft 97 kts 327°
2026-04-27 23:02 42.51297 -72.08783 4475 ft 95 kts 327°
2026-04-27 23:02 42.51805 -72.09370 4468 ft 97 kts 326°
2026-04-27 23:03 42.52322 -72.09973 4337 ft 98 kts 322°
2026-04-27 23:03 42.52718 -72.10735 4209 ft 100 kts 308°
2026-04-27 23:03 42.53080 -72.11549 4086 ft 100 kts 307°
2026-04-27 23:03 42.53441 -72.12357 3960 ft 101 kts 308°
2026-04-27 23:04 42.53803 -72.13173 3830 ft 101 kts 308°
2026-04-27 23:04 42.54171 -72.14001 3708 ft 102 kts 308°
2026-04-27 23:04 42.54548 -72.14806 3590 ft 101 kts 309°
2026-04-27 23:04 42.54961 -72.15588 3465 ft 102 kts 314°
2026-04-27 23:05 42.55394 -72.16359 3367 ft 101 kts 312°
2026-04-27 23:05 42.55779 -72.17168 3250 ft 104 kts 306°
2026-04-27 23:05 42.56130 -72.18017 3151 ft 103 kts 306°
2026-04-27 23:05 42.56483 -72.18868 3040 ft 104 kts 302°
2026-04-27 23:06 42.56788 -72.19758 2924 ft 105 kts 296°
2026-04-27 23:06 42.57002 -72.20705 2806 ft 104 kts 291°
2026-04-27 23:06 42.57194 -72.21630 2704 ft 103 kts 284°
2026-04-27 23:06 42.57323 -72.22603 2531 ft 105 kts 281°
2026-04-27 23:07 42.57398 -72.23583 2317 ft 106 kts 276°
2026-04-27 23:07 42.57432 -72.24580 2117 ft 105 kts 275°
2026-04-27 23:07 42.57433 -72.25576 1894 ft 106 kts 273°
2026-04-27 23:07 42.57435 -72.26570 1705 ft 104 kts 272°
2026-04-27 23:08 42.57593 -72.27485 1585 ft 99 kts 311°
2026-04-27 23:08 42.57997 -72.28217 1568 ft 96 kts 309°
2026-04-27 23:08 42.58383 -72.28949 1534 ft 89 kts 312°
2026-04-27 23:08 42.58745 -72.29586 1431 ft 82 kts 315°
2026-04-27 23:09 42.59112 -72.30173 1283 ft 84 kts 305°
2026-04-27 23:09 42.59020 -72.30933 1039 ft 89 kts 220°
2026-04-27 23:09 42.58502 -72.30936 883 ft 77 kts 139°
2026-04-27 23:09 42.58188 -72.30474 783 ft 60 kts 121°
2026-04-27 23:10 42.57948 -72.30024 670 ft 59 kts 120°
2026-04-27 23:10 42.57703 -72.29583 581 ft 57 kts 120°
2026-04-27 23:10 42.57481 -72.29173 536 ft 45 kts 128°
2026-04-27 23:10 42.57333 -72.28915 539 ft 27 kts 124°
2026-04-27 23:11 42.57234 -72.28736 541 ft 24 kts 128°
2026-04-27 23:11 42.57133 -72.28556 543 ft 20 kts 125°
2026-04-27 23:11 42.57058 -72.28423 545 ft 16 kts 127°
2026-04-27 23:11 42.56992 -72.28305 546 ft 11 kts 123°
2026-04-27 23:12 42.56992 -72.28236 546 ft 6 kts 45°
2026-04-27 23:12 42.57030 -72.28225 545 ft 3 kts 324°
2026-04-27 23:12 42.57032 -72.28228 545 ft 0 kts 316°
2026-04-27 23:12 42.57033 -72.28230 545 ft 3 kts 315°
2026-04-27 23:13 42.57079 -72.28259 544 ft 8 kts 353°
2026-04-27 23:13 42.57144 -72.28274 543 ft 8 kts 338°
2026-04-27 23:13 42.57187 -72.28331 542 ft 7 kts 308°
2026-04-27 23:13 42.57217 -72.28383 541 ft 6 kts 317°
2026-04-27 23:14 42.57256 -72.28401 541 ft 5 kts 340°
2026-04-27 23:14 42.57275 -72.28423 540 ft 2 kts 307°
2026-04-27 23:14 42.57283 -72.28436 540 ft 0 kts 307°